User: anonymous   Login
Location: Dampvalley
(47.9094°N, 6.1967°E)
Time: 15:31:35
(UTC+00:00)
Language:

QB50P2 - Orbit

View from above orbital plane
View from above orbital plane
View from above satellite
View from above satellite

Ground track
Ground track

The orbit data is extracted from the following two-line orbital elements,

1 40032U 14033Y   21330.73716718  .00000721  00000-0  82334-4 0  9993
2 40032  97.9246 258.0057 0012057   9.3446 350.7993 14.89154637403445
Epoch (UTC): 26 November 2021 17:41:31
Eccentricity: 0.0012057
inclination: 97.9246°
perigee height: 592 km
apogee height: 609 km
right ascension of ascending node: 258.0057°
argument of perigee: 9.3446°
revolutions per day: 14.89154637
mean anomaly at epoch: 350.7993°
orbit number at epoch: 40344

The dashed part of the orbit path shows where the satellite is in the earth's shadow,  

DLR